I-INSPIRE II

Last updated on Sun Nov 25 2018 00:02:08 GMT+0000 (Coordinated Universal Time)

1 42731U 98067ML 18328.65367517 .20606057 12514-4 45736-3 0 9990 2 42731 51.6195 233.0809 0005495 228.6465 131.7518 16.46306360 85922

Satellite not in orbit